Regional Weather Roundup
Issued by NWS

Home | Current Version | Previous Version | Graphics & Text | Print | Product List | Glossary On
Versions: 1 2 3 4 5 6 7 8 9 10 11 12 13 14 15 16 17 18 19 20 21 22 23 24 25 26 27 28 29 30 31 32 33 34 35 36 37 38 39 40 41 42 43 44 45 46 47 48 49 50
000
ASUS45 KBOI 272310
RWRID
WEATHER ROUNDUP FOR IDAHO
NATIONAL WEATHER SERVICE BOISE ID
500 PM MDT SUN JUL 27 2014

NOTE: "FAIR" INDICATES FEW OR NO CLOUDS BELOW 12000 FEET
WITH NO SIGNIFICANT WEATHER AND/OR OBSTRUCTIONS TO VISIBILITY

IDZ012-014-280000-
SOUTHWEST IDAHO


CITY           SKY/WX    TMP DP  RH WIND       PRES   REMARKS
BOISE          SUNNY     97  37  12 W7        30.03F HX  92
CALDWELL       SUNNY     97  46  17 CALM      30.02F HX  93
MOUNTAIN HOME  SUNNY     99  25   7 NE3       30.02F HX  92
$$

IDZ016-017-280000-
SOUTHCENTRAL IDAHO


CITY           SKY/WX    TMP DP  RH WIND       PRES   REMARKS
BURLEY         PTSUNNY   96  35  11 N8        30.09F HX  91
JEROME         SUNNY     97  37  12 CALM      30.10F HX  92
TWIN FALLS     MOSUNNY   99  32   9 N7        30.10F HX  93
$$

IDZ019>023-280000-
SOUTHEAST IDAHO


CITY           SKY/WX    TMP DP  RH WIND       PRES   REMARKS
IDAHO FALLS    MOSUNNY   93  36  13 NW7       30.19F
POCATELLO      MOSUNNY   97  27   8 N12       30.15F HX  91
REXBURG        SUNNY     90  25   9 S6        30.20F
$$

IDZ006-010-011-018-031-032-280000-
CENTRAL IDAHO MOUNTAINS


CITY           SKY/WX    TMP DP  RH WIND       PRES   REMARKS
MCCALL         MOSUNNY   90  24   9 W8        30.20F
HAILEY         MOSUNNY   86  46  25 SE12      30.22F
STANLEY          N/A     85  19   9 VRB5      30.31F
SALMON         SUNNY     88  43  20 N6        30.10F
CHALLIS        SUNNY     89  24   9 CALM      30.19F
$$

IDZ002-004-006-007-026-280000-
NORTHERN IDAHO


CITY           SKY/WX    TMP DP  RH WIND       PRES   REMARKS
LEWISTON       SUNNY    100  36  11 CALM      30.00F HX  94
LOWELL           N/A     98  55  23 CALM      29.98F HX  96
COEUR D`ALENE  SUNNY     90  36  14 CALM      30.10F
MULLAN PASS    SUNNY     75  31  19 VRB5      30.36F
$$


USA.gov is the U.S. government's official web portal to all federal, state and local government web resources and services.